timestamp,wind_dir_avg,wind_spd_avg,wind_spd_max_dir,wind_spd_gust,battery_voltage,lat,long
2022-01-29 00:04:01+00:00,172.0,8.65,198.0,10.66,12.41,47.59359,-54.27349
2022-01-29 00:14:00+00:00,201.0,10.71,211.0,13.04,12.41,47.59359,-54.27349
2022-01-29 00:24:00+00:00,199.0,11.56,218.0,14.78,12.41,47.59359,-54.27349
2022-01-29 00:34:00+00:00,181.0,8.81,171.0,10.54,12.41,47.59359,-54.27349
2022-01-29 00:44:00+00:00,219.0,11.45,222.0,13.5,12.41,47.59359,-54.27349
2022-01-29 00:54:00+00:00,175.0,9.1,198.0,10.63,12.41,47.59359,-54.27349
2022-01-29 01:04:00+00:00,202.0,11.42,216.0,13.62,12.41,47.59359,-54.27349
2022-01-29 01:14:00+00:00,198.0,11.42,201.0,13.65,12.41,47.59359,-54.27349
2022-01-29 01:24:00+00:00,220.0,13.07,222.0,14.74,12.41,47.59359,-54.27349
2022-01-29 01:34:00+00:00,234.0,10.81,228.0,13.08,12.41,47.59359,-54.27349
2022-01-29 01:44:00+00:00,242.0,8.71,245.0,10.4,12.41,47.59359,-54.27349
2022-01-29 01:54:00+00:00,245.0,9.67,244.0,11.83,12.41,47.59359,-54.27349
2022-01-29 02:04:00+00:00,250.0,10.69,249.0,11.49,12.41,47.59359,-54.27349
2022-01-29 02:14:01+00:00,247.0,9.65,250.0,10.72,12.41,47.59359,-54.27349
2022-01-29 02:24:01+00:00,216.0,4.76,221.0,5.65,12.41,47.59359,-54.27349
2022-01-29 02:34:01+00:00,191.0,4.56,215.0,6.36,12.41,47.59359,-54.27349
2022-01-29 02:44:01+00:00,227.0,4.38,222.0,5.38,12.41,47.59359,-54.27349
2022-01-29 02:54:01+00:00,221.0,5.34,221.0,5.92,12.41,47.59359,-54.27349
2022-01-29 03:04:01+00:00,224.0,5.5,232.0,6.9,12.41,47.59359,-54.27349
2022-01-29 03:14:01+00:00,215.0,5.81,217.0,6.33,12.41,47.59359,-54.27349
2022-01-29 03:24:01+00:00,172.0,5.12,209.0,6.36,12.41,47.59359,-54.27349
2022-01-29 03:34:01+00:00,178.0,6.48,173.0,7.14,12.41,47.59359,-54.27349
2022-01-29 03:44:01+00:00,178.0,6.0,190.0,6.91,12.41,47.59359,-54.27349
2022-01-29 03:54:01+00:00,164.0,5.48,164.0,6.13,12.41,47.59359,-54.27349
2022-01-29 04:04:01+00:00,160.0,5.79,156.0,6.21,12.41,47.59359,-54.27349
2022-01-29 04:14:00+00:00,174.0,5.21,196.0,5.92,12.41,47.59359,-54.27349
2022-01-29 04:24:00+00:00,175.0,5.85,202.0,6.6,12.41,47.59359,-54.27349
2022-01-29 04:34:00+00:00,208.0,6.85,224.0,8.51,12.41,47.59359,-54.27349
2022-01-29 04:44:00+00:00,203.0,7.79,206.0,8.58,12.41,47.59359,-54.27349
2022-01-29 04:54:00+00:00,226.0,9.83,235.0,11.67,12.41,47.59359,-54.27349
2022-01-29 05:04:00+00:00,219.0,8.88,231.0,12.16,12.41,47.59359,-54.27349
2022-01-29 05:14:00+00:00,213.0,7.6,231.0,10.51,12.41,47.59359,-54.27349
2022-01-29 05:24:00+00:00,217.0,9.43,226.0,11.95,12.41,47.59359,-54.27349
2022-01-29 05:34:00+00:00,211.0,9.54,224.0,11.69,12.41,47.59359,-54.27349
2022-01-29 05:44:00+00:00,214.0,8.9,229.0,11.37,12.41,47.59359,-54.27349
2022-01-29 05:54:00+00:00,203.0,8.81,215.0,10.13,12.41,47.59359,-54.27349
2022-01-29 06:04:00+00:00,170.0,6.77,173.0,7.43,12.41,47.59359,-54.27349
2022-01-29 06:14:00+00:00,179.0,7.5,204.0,8.6,12.33,47.59359,-54.27349
2022-01-29 06:24:00+00:00,179.0,8.04,164.0,9.19,12.33,47.59359,-54.27349
2022-01-29 06:34:00+00:00,168.0,7.69,167.0,8.43,12.33,47.59359,-54.27349
2022-01-29 06:44:00+00:00,179.0,6.42,185.0,7.26,12.33,47.59359,-54.27349
2022-01-29 06:54:00+00:00,165.0,7.32,164.0,8.16,12.33,47.59359,-54.27349
2022-01-29 07:04:00+00:00,162.0,7.06,164.0,7.95,12.33,47.59359,-54.27349
2022-01-29 07:14:00+00:00,178.0,7.1,177.0,8.2,12.33,47.59359,-54.27349
2022-01-29 07:24:00+00:00,164.0,6.31,158.0,7.15,12.33,47.59359,-54.27349
2022-01-29 07:34:00+00:00,164.0,6.43,170.0,7.33,12.33,47.59359,-54.27349
2022-01-29 07:44:00+00:00,174.0,5.69,184.0,7.29,12.33,47.59359,-54.27349
2022-01-29 07:54:00+00:00,174.0,7.17,169.0,8.12,12.33,47.59359,-54.27349
2022-01-29 08:04:00+00:00,174.0,6.74,163.0,8.14,12.33,47.59359,-54.27349
2022-01-29 08:14:01+00:00,176.0,5.81,183.0,6.48,12.33,47.59359,-54.27349
2022-01-29 08:24:01+00:00,164.0,7.86,163.0,8.76,12.33,47.59359,-54.27349
2022-01-29 08:34:01+00:00,178.0,7.0,176.0,8.05,12.33,47.59359,-54.27349
2022-01-29 08:44:01+00:00,179.0,7.62,182.0,8.75,12.33,47.59359,-54.27349
2022-01-29 08:54:01+00:00,180.0,7.15,183.0,8.05,12.33,47.59359,-54.27349
2022-01-29 09:04:01+00:00,176.0,8.13,177.0,10.6,12.33,47.59359,-54.27349
2022-01-29 09:14:01+00:00,167.0,8.17,163.0,9.14,12.33,47.59359,-54.27349
2022-01-29 09:24:01+00:00,191.0,8.35,203.0,9.76,12.33,47.59359,-54.27349
2022-01-29 09:34:01+00:00,195.0,8.11,203.0,9.21,12.33,47.59359,-54.27349
2022-01-29 09:44:01+00:00,187.0,7.21,203.0,8.62,12.33,47.59359,-54.27349
2022-01-29 09:54:01+00:00,214.0,7.98,230.0,11.73,12.33,47.59359,-54.27349
2022-01-29 10:04:01+00:00,199.0,7.21,199.0,8.69,12.33,47.59359,-54.27349
2022-01-29 10:14:01+00:00,198.0,7.55,214.0,8.85,12.25,47.59359,-54.27349
2022-01-29 10:24:01+00:00,205.0,8.32,216.0,9.94,12.25,47.59359,-54.27349
2022-01-29 10:34:01+00:00,207.0,10.66,222.0,13.09,12.25,47.59359,-54.27349
2022-01-29 10:44:01+00:00,197.0,9.15,224.0,12.4,12.25,47.59359,-54.27349
2022-01-29 10:54:01+00:00,216.0,10.6,224.0,12.79,12.25,47.59359,-54.27349
2022-01-29 11:04:01+00:00,195.0,7.46,203.0,9.25,12.25,47.59359,-54.27349
2022-01-29 11:14:00+00:00,202.0,8.76,214.0,10.14,12.25,47.59359,-54.27349
2022-01-29 11:24:00+00:00,201.0,8.75,203.0,10.19,12.25,47.59359,-54.27349
2022-01-29 11:34:00+00:00,188.0,7.29,206.0,9.33,12.25,47.59359,-54.27349
2022-01-29 11:44:00+00:00,177.0,6.69,206.0,8.27,12.25,47.59359,-54.27349
2022-01-29 11:54:00+00:00,167.0,7.84,164.0,8.55,12.25,47.59359,-54.27349
2022-01-29 12:04:00+00:00,206.0,9.26,220.0,11.27,12.25,47.59359,-54.27349
2022-01-29 12:14:01+00:00,179.0,7.54,195.0,8.62,12.41,47.59359,-54.27349
2022-01-29 12:24:01+00:00,168.0,8.28,163.0,8.87,12.41,47.59359,-54.27349
2022-01-29 12:34:01+00:00,166.0,7.01,159.0,7.8,12.41,47.59359,-54.27349
2022-01-29 12:44:01+00:00,165.0,6.08,160.0,7.07,12.41,47.59359,-54.27349
2022-01-29 12:54:01+00:00,166.0,6.34,169.0,7.1,12.41,47.59359,-54.27349
2022-01-29 13:04:01+00:00,206.0,7.96,210.0,8.94,12.41,47.59359,-54.27349
2022-01-29 13:14:01+00:00,173.0,7.45,170.0,8.29,12.65,47.59359,-54.27349
2022-01-29 13:24:01+00:00,169.0,7.99,168.0,8.8,12.65,47.59359,-54.27349
2022-01-29 13:34:01+00:00,172.0,8.23,168.0,9.71,12.65,47.59359,-54.27349
2022-01-29 13:44:01+00:00,167.0,7.79,163.0,9.17,12.65,47.59359,-54.27349
2022-01-29 13:54:01+00:00,165.0,7.12,166.0,8.12,12.65,47.59359,-54.27349
2022-01-29 14:04:01+00:00,156.0,4.9,158.0,6.21,12.65,47.59359,-54.27349
2022-01-29 14:14:01+00:00,168.0,5.21,181.0,6.58,13.13,47.59359,-54.27349
2022-01-29 14:24:01+00:00,179.0,5.75,187.0,6.52,13.13,47.59359,-54.27349
2022-01-29 14:34:01+00:00,162.0,6.01,167.0,7.27,13.13,47.59359,-54.27349
2022-01-29 14:44:01+00:00,167.0,4.91,157.0,6.88,13.13,47.59359,-54.27349
2022-01-29 14:54:01+00:00,147.0,3.55,149.0,4.23,13.13,47.59359,-54.27349
2022-01-29 15:04:01+00:00,168.0,1.36,242.0,2.44,13.13,47.59359,-54.27349
2022-01-29 15:14:00+00:00,186.0,0.85,207.0,1.4,13.68,47.59359,-54.27349
2022-01-29 15:24:00+00:00,176.0,2.39,161.0,3.22,13.68,47.59359,-54.27349
2022-01-29 15:34:00+00:00,164.0,4.77,156.0,5.67,13.68,47.59359,-54.27349
2022-01-29 15:44:00+00:00,163.0,3.75,158.0,5.93,13.68,47.59359,-54.27349
2022-01-29 15:54:00+00:00,183.0,4.44,184.0,5.14,13.68,47.59359,-54.27349
2022-01-29 16:04:00+00:00,188.0,2.56,191.0,3.45,13.68,47.59359,-54.27349
2022-01-29 16:14:01+00:00,165.0,0.65,161.0,1.2,12.97,47.59359,-54.27349
2022-01-29 16:24:01+00:00,60.0,0.47,80.0,0.87,12.97,47.59359,-54.27349
2022-01-29 16:34:01+00:00,117.0,1.23,119.0,1.59,12.97,47.59359,-54.27349
2022-01-29 16:44:01+00:00,144.0,3.77,141.0,4.81,12.97,47.59359,-54.27349
2022-01-29 16:54:01+00:00,162.0,4.24,167.0,5.09,12.97,47.59359,-54.27349
2022-01-29 17:04:01+00:00,144.0,3.24,138.0,4.43,12.97,47.59359,-54.27349
2022-01-29 17:14:01+00:00,126.0,4.82,114.0,6.98,12.97,47.59359,-54.27349
2022-01-29 17:24:01+00:00,119.0,6.98,115.0,10.37,12.97,47.59359,-54.27349
2022-01-29 17:34:01+00:00,145.0,6.05,146.0,7.23,12.97,47.59359,-54.27349
2022-01-29 17:44:01+00:00,144.0,6.4,142.0,7.15,12.97,47.59359,-54.27349
2022-01-29 17:54:01+00:00,119.0,8.37,114.0,10.83,12.97,47.59359,-54.27349
2022-01-29 18:04:01+00:00,111.0,7.24,108.0,9.82,12.97,47.59359,-54.27349
2022-01-29 18:14:00+00:00,116.0,10.74,118.0,12.0,12.65,47.59359,-54.27349
2022-01-29 18:24:00+00:00,113.0,2.5,108.0,8.77,12.65,47.59359,-54.27349
2022-01-29 18:34:00+00:00,113.0,8.46,120.0,11.2,12.65,47.59359,-54.27349
2022-01-29 18:44:00+00:00,117.0,10.86,123.0,12.1,12.65,47.59359,-54.27349
2022-01-29 18:54:00+00:00,105.0,5.13,113.0,10.99,12.65,47.59359,-54.27349
2022-01-29 19:04:00+00:00,118.0,9.57,113.0,11.51,12.65,47.59359,-54.27349
2022-01-29 19:14:01+00:00,100.0,8.06,120.0,11.5,12.57,47.59359,-54.27349
2022-01-29 19:24:01+00:00,96.0,8.27,126.0,11.64,12.57,47.59359,-54.27349
2022-01-29 19:34:01+00:00,98.0,7.22,112.0,10.96,12.57,47.59359,-54.27349
2022-01-29 19:44:01+00:00,82.0,9.32,74.0,11.17,12.57,47.59359,-54.27349
2022-01-29 19:54:01+00:00,77.0,8.83,76.0,11.08,12.57,47.59359,-54.27349
2022-01-29 20:04:01+00:00,87.0,9.23,77.0,10.78,12.57,47.59359,-54.27349
2022-01-29 20:14:00+00:00,78.0,9.99,72.0,11.13,12.49,47.59359,-54.27349
2022-01-29 20:24:00+00:00,68.0,9.03,64.0,11.57,12.49,47.59359,-54.27349
2022-01-29 20:34:00+00:00,84.0,8.79,72.0,11.16,12.49,47.59359,-54.27349
2022-01-29 20:44:00+00:00,96.0,6.23,77.0,10.34,12.49,47.59359,-54.27349
2022-01-29 20:54:00+00:00,112.0,7.74,121.0,10.88,12.49,47.59359,-54.27349
2022-01-29 21:04:00+00:00,102.0,8.25,131.0,11.08,12.49,47.59359,-54.27349
2022-01-29 21:14:01+00:00,92.0,8.42,112.0,11.33,12.49,47.59359,-54.27349
2022-01-29 21:24:01+00:00,83.0,7.7,77.0,10.66,12.49,47.59359,-54.27349
2022-01-29 21:34:01+00:00,103.0,7.39,109.0,10.96,12.49,47.59359,-54.27349
2022-01-29 21:44:01+00:00,91.0,6.81,104.0,10.3,12.49,47.59359,-54.27349
2022-01-29 21:54:01+00:00,93.0,7.29,104.0,10.34,12.49,47.59359,-54.27349
2022-01-29 22:04:01+00:00,95.0,6.63,80.0,10.21,12.49,47.59359,-54.27349
2022-01-29 22:14:01+00:00,108.0,8.9,123.0,14.67,12.49,47.59359,-54.27349
2022-01-29 22:24:01+00:00,125.0,10.15,131.0,12.18,12.49,47.59359,-54.27349
2022-01-29 22:34:01+00:00,114.0,8.59,109.0,12.12,12.49,47.59359,-54.27349
2022-01-29 22:44:01+00:00,117.0,9.25,124.0,13.63,12.49,47.59359,-54.27349
2022-01-29 22:54:01+00:00,120.0,11.99,104.0,19.84,12.49,47.59359,-54.27349
2022-01-29 23:04:01+00:00,124.0,14.72,126.0,19.66,12.49,47.59359,-54.27349
2022-01-29 23:14:01+00:00,127.0,15.17,128.0,18.77,12.41,47.59359,-54.27349
2022-01-29 23:24:01+00:00,131.0,14.62,131.0,17.54,12.41,47.59359,-54.27349
2022-01-29 23:34:01+00:00,132.0,15.89,137.0,18.76,12.41,47.59359,-54.27349
2022-01-29 23:44:01+00:00,130.0,16.09,136.0,20.5,12.41,47.59359,-54.27349
2022-01-29 23:54:01+00:00,126.0,17.67,132.0,20.15,12.41,47.59359,-54.27349
